M I D A S
Marine Information and Data Acquisition System
Tripno 972 of the Zeeleeuw from 2005-10-17 06:25:46 to 2005-10-17 15:25:52
Back to CruiseResearch ActivitiesStationsMapUnderway DataData graphs

EquipmentUnitsComments
TimeDGPSUTC
LatitudeDGPSDM.mWGS84
LongitudeDGPSDM.mWGS84
SpeedMeteo Stationm/sRelative wind speed
DirectionMeteo StationdegRelative wind direction
TemperatureMeteo Stationdeg CelciusAir temperature
PressureMeteo StationPaAtmospheric pressure
HumidityMeteo Station%Relative humidity
Missing or incorrect values are displayed as -999
Metereological data collected by the RV Zeeleeuw from 2005-10-17 06:28:52 to 2005-10-17 15:35:43
                                                                                    Next 1000 lines
Time Latitude Longitude Speed Direction Temperature Pressure Humidity
2005-10-17 06:29:02 51°13.604 2°56.095 -999 4 10 102290 89
2005-10-17 06:29:07 51°13.604 2°56.092 -999 352 10 102290 89
2005-10-17 06:29:12 51°13.605 2°56.088 -999 349 10 102290 89
2005-10-17 06:29:18 51°13.607 2°56.082 -999 349 10 102290 89
2005-10-17 06:29:23 51°13.608 2°56.077 -999 345 10 102290 89
2005-10-17 06:29:28 51°13.61 2°56.072 -999 4 10 102290 89
2005-10-17 06:29:33 51°13.611 2°56.066 -999 3 10 102290 89
2005-10-17 06:29:38 51°13.613 2°56.06 -999 18 10 102290 89
2005-10-17 06:29:43 51°13.615 2°56.054 -999 3 10 102290 89
2005-10-17 06:29:48 51°13.616 2°56.047 -999 351 10 102290 89
2005-10-17 06:29:53 51°13.618 2°56.041 -999 357 10 102290 88
2005-10-17 06:29:58 51°13.62 2°56.034 -999 27 10 102290 88
2005-10-17 06:30:03 51°13.621 2°56.027 -999 31 10 102290 88
2005-10-17 06:30:08 51°13.623 2°56.019 -999 37 10 102290 88
2005-10-17 06:30:12 51°13.625 2°56.013 -999 35 10 102290 88
2005-10-17 06:30:18 51°13.627 2°56.005 -999 30 10 102290 88
2005-10-17 06:30:23 51°13.629 2°55.997 -999 29 10 102290 88
2005-10-17 06:30:28 51°13.631 2°55.99 -999 352 10 102290 88
2005-10-17 06:30:32 51°13.632 2°55.984 -999 1 10 102290 88
2005-10-17 06:30:38 51°13.635 2°55.975 -999 16 10 102290 88
2005-10-17 06:30:43 51°13.637 2°55.967 -999 16 10 102290 88
2005-10-17 06:30:48 51°13.64 2°55.959 -999 10 10 102290 88
2005-10-17 06:30:52 51°13.642 2°55.953 -999 10 10 102290 88
2005-10-17 06:30:58 51°13.645 2°55.943 -999 350 10 102290 88
2005-10-17 06:31:03 51°13.648 2°55.936 -999 350 10 102290 88
2005-10-17 06:31:08 51°13.651 2°55.928 -999 3 10 102290 88
2005-10-17 06:31:12 51°13.653 2°55.922 -999 3 10 102290 88
2005-10-17 06:31:18 51°13.657 2°55.912 -999 14 10 102290 88
2005-10-17 06:31:23 51°13.66 2°55.904 -999 3 10 102290 88
2005-10-17 06:31:28 51°13.663 2°55.896 -999 339 10 102290 88
2005-10-17 06:31:32 51°13.665 2°55.89 -999 342 10 102290 89
2005-10-17 06:31:38 51°13.669 2°55.881 -999 324 10 102290 89
2005-10-17 06:31:43 51°13.672 2°55.872 -999 328 10 102290 89
2005-10-17 06:31:48 51°13.674 2°55.865 -999 4 10 102290 89
2005-10-17 06:31:52 51°13.676 2°55.858 -999 12 10 102280 89
2005-10-17 06:31:58 51°13.679 2°55.848 -999 20 10 102280 89
2005-10-17 06:32:03 51°13.681 2°55.839 -999 21 10 102280 89
2005-10-17 06:32:08 51°13.683 2°55.831 -999 37 10 102280 89
2005-10-17 06:32:12 51°13.685 2°55.824 -999 37 10 102290 89
2005-10-17 06:32:18 51°13.687 2°55.813 -999 25 10 102290 89
2005-10-17 06:32:23 51°13.689 2°55.804 -999 38 10 102290 89
2005-10-17 06:32:28 51°13.691 2°55.796 -999 27 10 102290 89
2005-10-17 06:32:32 51°13.692 2°55.789 -999 37 10 102280 89
2005-10-17 06:32:38 51°13.694 2°55.778 -999 41 10 102280 89
2005-10-17 06:32:43 51°13.695 2°55.77 -999 43 10 102290 89
2005-10-17 06:32:48 51°13.696 2°55.761 -999 57 10 102290 89
2005-10-17 06:32:52 51°13.696 2°55.755 -999 42 10 102290 88
2005-10-17 06:32:58 51°13.697 2°55.746 -999 49 10 102290 88
2005-10-17 06:33:03 51°13.698 2°55.742 -999 48 10 102280 88
2005-10-17 06:33:08 51°13.698 2°55.741 -999 34 10 102280 88
2005-10-17 06:33:13 51°13.699 2°55.74 -999 35 10 102280 88
2005-10-17 06:33:18 51°13.699 2°55.741 -999 58 10 102280 88
2005-10-17 06:33:22 51°13.7 2°55.741 -999 62 10 102280 88
2005-10-17 06:33:28 51°13.701 2°55.743 -999 61 10 102280 88
2005-10-17 06:33:32 51°13.703 2°55.744 -999 65 10 102280 88
2005-10-17 06:33:38 51°13.705 2°55.747 -999 77 10 102280 88
2005-10-17 06:33:42 51°13.707 2°55.748 -999 81 10 102280 88
2005-10-17 06:33:48 51°13.711 2°55.75 -999 89 10 102280 88
2005-10-17 06:33:52 51°13.713 2°55.752 -999 96 10 102280 89
2005-10-17 06:33:58 51°13.716 2°55.753 -999 102 10 102280 89
2005-10-17 06:34:02 51°13.721 2°55.754 -999 102 10 102280 89
2005-10-17 06:34:08 51°13.725 2°55.754 -999 105 10 102280 89
2005-10-17 06:34:12 51°13.729 2°55.754 -999 106 10 102280 89
2005-10-17 06:34:16 51°13.732 2°55.753 -999 115 10 102280 89
2005-10-17 06:34:22 51°13.738 2°55.751 -999 106 10.1 102280 89
2005-10-17 06:34:28 51°13.743 2°55.748 -999 135 10.1 102280 89
2005-10-17 06:34:32 51°13.746 2°55.745 -999 144 10 102280 89
2005-10-17 06:34:36 51°13.75 2°55.742 -999 148 10 102280 89
2005-10-17 06:34:42 51°13.755 2°55.735 -999 146 10 102280 89
2005-10-17 06:34:48 51°13.76 2°55.728 -999 149 10 102280 89
2005-10-17 06:34:52 51°13.763 2°55.722 -999 161 10.1 102280 89
2005-10-17 06:34:58 51°13.769 2°55.712 -999 166 10.1 102280 89
2005-10-17 06:35:02 51°13.773 2°55.705 -999 172 10 102290 89
2005-10-17 06:35:08 51°13.779 2°55.695 -999 175 10 102290 89
2005-10-17 06:35:12 51°13.784 2°55.687 -999 175 10.1 102290 89
2005-10-17 06:35:18 51°13.791 2°55.675 -999 175 10.1 102290 89
2005-10-17 06:35:22 51°13.797 2°55.667 -999 175 10.1 102290 89
2005-10-17 06:35:27 51°13.804 2°55.658 -999 175 10.1 102290 89
2005-10-17 06:35:32 51°13.812 2°55.648 -999 175 10.1 102290 89
2005-10-17 06:35:38 51°13.823 2°55.637 -999 59 10.1 102290 89
2005-10-17 06:35:43 51°13.832 2°55.627 -999 60 10.1 102280 88
2005-10-17 06:35:48 51°13.842 2°55.618 -999 34 10.1 102280 88
2005-10-17 06:35:52 51°13.85 2°55.611 -999 34 10.1 102290 88
2005-10-17 06:35:58 51°13.863 2°55.601 -999 45 10.1 102290 88
2005-10-17 06:36:02 51°13.871 2°55.594 -999 42 10 102290 88
2005-10-17 06:36:08 51°13.884 2°55.584 -999 38 10 102290 88
2005-10-17 06:36:12 51°13.893 2°55.578 -999 36 10 102290 88
2005-10-17 06:36:17 51°13.904 2°55.57 -999 72 10 102290 88
2005-10-17 06:36:22 51°13.915 2°55.562 -999 76 10 102280 88
2005-10-17 06:36:28 51°13.929 2°55.553 -999 11 10 102280 88
2005-10-17 06:36:32 51°13.938 2°55.546 -999 15 10.1 102280 88
2005-10-17 06:36:38 51°13.953 2°55.537 -999 19 10.1 102280 88
2005-10-17 06:36:42 51°13.962 2°55.53 -999 18 10 102290 88
2005-10-17 06:36:48 51°13.976 2°55.521 -999 75 10 102290 88
2005-10-17 06:36:52 51°13.986 2°55.515 -999 77 10 102280 88
2005-10-17 06:36:57 51°13.998 2°55.506 -999 82 10 102280 88
2005-10-17 06:37:02 51°14.009 2°55.498 -999 86 10 102290 88
2005-10-17 06:37:08 51°14.024 2°55.489 -999 80 10 102290 88
2005-10-17 06:37:12 51°14.034 2°55.482 -999 83 10 102290 88
2005-10-17 06:37:18 51°14.048 2°55.472 -999 69 10 102290 88
2005-10-17 06:37:22 51°14.058 2°55.465 -999 68 10 102280 88
2005-10-17 06:37:28 51°14.073 2°55.455 -999 59 10 102280 88
2005-10-17 06:37:33 51°14.085 2°55.446 -999 51 10.1 102280 88
2005-10-17 06:37:38 51°14.098 2°55.437 -999 73 10.1 102280 88
2005-10-17 06:37:42 51°14.108 2°55.429 -999 50 10.1 102290 88
2005-10-17 06:37:48 51°14.123 2°55.417 -999 48 10.1 102290 88
2005-10-17 06:37:52 51°14.133 2°55.409 -999 41 10 102290 88
2005-10-17 06:37:58 51°14.148 2°55.396 -999 33 10 102290 88
2005-10-17 06:38:03 51°14.161 2°55.385 -999 44 10.1 102280 88
2005-10-17 06:38:08 51°14.173 2°55.373 -999 50 10.1 102280 88
2005-10-17 06:38:13 51°14.185 2°55.361 -999 51 10.1 102280 88
2005-10-17 06:38:18 51°14.197 2°55.347 -999 47 10.1 102280 88
2005-10-17 06:38:23 51°14.209 2°55.334 -999 65 10.1 102280 88
2005-10-17 06:38:28 51°14.22 2°55.319 -999 112 10.1 102280 88
2005-10-17 06:38:33 51°14.231 2°55.304 -999 112 10.1 102280 88
2005-10-17 06:38:38 51°14.242 2°55.288 -999 113 10.1 102280 88
2005-10-17 06:38:43 51°14.253 2°55.271 -999 110 10.1 102280 88
2005-10-17 06:38:48 51°14.263 2°55.254 -999 109 10.1 102280 88
2005-10-17 06:38:52 51°14.271 2°55.239 -999 109 10.1 102280 88
2005-10-17 06:38:58 51°14.282 2°55.217 -999 109 10.1 102280 88
2005-10-17 06:39:03 51°14.291 2°55.198 -999 109 10.1 102290 88
2005-10-17 06:39:07 51°14.299 2°55.183 -999 59 10.1 102290 88
2005-10-17 06:39:12 51°14.308 2°55.164 -999 23 10.1 102280 88
2005-10-17 06:39:17 51°14.317 2°55.145 -999 30 10.1 102280 88
2005-10-17 06:39:22 51°14.327 2°55.126 -999 33 10.2 102290 88
2005-10-17 06:39:28 51°14.338 2°55.103 -999 55 10.2 102290 88
2005-10-17 06:39:32 51°14.345 2°55.088 -999 59 10.1 102290 88
2005-10-17 06:39:38 51°14.357 2°55.064 -999 52 10.1 102290 88
2005-10-17 06:39:42 51°14.364 2°55.048 -999 54 10.1 102290 88
2005-10-17 06:39:48 51°14.376 2°55.025 -999 63 10.1 102290 88
2005-10-17 06:39:52 51°14.383 2°55.008 -999 66 10.1 102290 88
2005-10-17 06:39:57 51°14.393 2°54.988 -999 43 10.1 102290 88
2005-10-17 06:40:02 51°14.402 2°54.968 -999 39 10.1 102290 88
2005-10-17 06:40:07 51°14.412 2°54.947 -999 14 10.1 102290 88
2005-10-17 06:40:12 51°14.421 2°54.926 -999 14 10.1 102280 88
2005-10-17 06:40:16 51°14.429 2°54.909 -999 14 10.1 102280 88
2005-10-17 06:40:22 51°14.442 2°54.884 -999 15 10.1 102290 88
2005-10-17 06:40:28 51°14.455 2°54.86 -999 44 10.1 102290 88
2005-10-17 06:40:32 51°14.465 2°54.845 -999 45 10.1 102290 88
2005-10-17 06:40:38 51°14.48 2°54.824 -999 43 10.1 102290 88
2005-10-17 06:40:43 51°14.494 2°54.807 -999 50 10.1 102290 88
2005-10-17 06:40:47 51°14.505 2°54.793 -999 43 10.1 102290 88
2005-10-17 06:40:52 51°14.518 2°54.777 -999 48 10.1 102280 88
2005-10-17 06:40:56 51°14.53 2°54.764 -999 77 10.1 102280 88
2005-10-17 06:41:02 51°14.547 2°54.745 -999 64 10.1 102280 88
2005-10-17 06:41:08 51°14.564 2°54.727 -999 66 10.1 102280 88
2005-10-17 06:41:12 51°14.576 2°54.716 -999 60 10.1 102290 88
2005-10-17 06:41:18 51°14.594 2°54.7 -999 57 10.1 102290 88
2005-10-17 06:41:22 51°14.607 2°54.69 -999 52 10.2 102280 88
2005-10-17 06:41:28 51°14.625 2°54.675 -999 49 10.2 102280 88
2005-10-17 06:41:32 51°14.638 2°54.666 -999 57 10.2 102280 88
2005-10-17 06:41:38 51°14.656 2°54.653 -999 57 10.2 102280 88
2005-10-17 06:41:42 51°14.669 2°54.644 -999 60 10.2 102290 87
2005-10-17 06:41:48 51°14.688 2°54.63 -999 58 10.2 102290 87
2005-10-17 06:41:52 51°14.7 2°54.622 -999 51 10.2 102290 87
2005-10-17 06:41:56 51°14.713 2°54.614 -999 49 10.2 102290 87
2005-10-17 06:42:02 51°14.733 2°54.603 -999 44 10.2 102290 87
2005-10-17 06:42:08 51°14.752 2°54.593 -999 52 10.2 102290 87
2005-10-17 06:42:12 51°14.765 2°54.588 -999 52 10.2 102290 87
2005-10-17 06:42:18 51°14.785 2°54.58 -999 63 10.2 102290 87
2005-10-17 06:42:22 51°14.798 2°54.575 -999 58 10.1 102290 87
2005-10-17 06:42:28 51°14.818 2°54.567 -999 54 10.1 102290 87
2005-10-17 06:42:32 51°14.831 2°54.562 -999 58 10.2 102290 87
2005-10-17 06:42:38 51°14.85 2°54.553 -999 51 10.2 102290 87
2005-10-17 06:42:42 51°14.863 2°54.547 -999 58 10.2 102290 87
2005-10-17 06:42:48 51°14.883 2°54.538 -999 56 10.2 102290 87
2005-10-17 06:42:52 51°14.895 2°54.531 -999 40 10.2 102290 87
2005-10-17 06:42:58 51°14.915 2°54.52 -999 52 10.2 102290 87
2005-10-17 06:43:02 51°14.927 2°54.513 -999 50 10.2 102290 88
2005-10-17 06:43:07 51°14.943 2°54.503 -999 49 10.2 102290 88
2005-10-17 06:43:12 51°14.959 2°54.493 -999 56 10.2 102300 88
2005-10-17 06:43:16 51°14.971 2°54.485 -999 43 10.2 102300 88
2005-10-17 06:43:22 51°14.99 2°54.473 -999 44 10.2 102290 88
2005-10-17 06:43:28 51°15.008 2°54.46 -999 35 10.2 102290 88
2005-10-17 06:43:32 51°15.021 2°54.451 -999 35 10.2 102300 88
2005-10-17 06:43:38 51°15.039 2°54.44 -999 43 10.2 102300 88
2005-10-17 06:43:43 51°15.055 2°54.432 -999 47 10.2 102300 88
2005-10-17 06:43:48 51°15.071 2°54.425 -999 48 10.2 102300 88
2005-10-17 06:43:52 51°15.084 2°54.42 -999 48 10.3 102300 89
2005-10-17 06:43:58 51°15.103 2°54.414 -999 53 10.3 102300 89
2005-10-17 06:44:02 51°15.115 2°54.41 -999 56 10.3 102300 89
2005-10-17 06:44:07 51°15.131 2°54.406 -999 51 10.3 102300 89
2005-10-17 06:44:12 51°15.147 2°54.402 -999 51 10.2 102290 88
2005-10-17 06:44:16 51°15.16 2°54.399 -999 51 10.2 102290 88
2005-10-17 06:44:22 51°15.179 2°54.393 -999 53 10.3 102290 88
2005-10-17 06:44:28 51°15.198 2°54.387 -999 55 10.3 102290 88
2005-10-17 06:44:32 51°15.211 2°54.381 -999 61 10.2 102300 88
2005-10-17 06:44:38 51°15.23 2°54.374 -999 68 10.2 102300 88
2005-10-17 06:44:42 51°15.243 2°54.368 -999 67 10.2 102290 88
2005-10-17 06:44:48 51°15.262 2°54.359 -999 54 10.2 102290 88
2005-10-17 06:44:52 51°15.275 2°54.352 -999 51 10.2 102300 88
2005-10-17 06:44:58 51°15.294 2°54.34 -999 51 10.2 102300 88
2005-10-17 06:45:02 51°15.306 2°54.332 -999 60 10.2 102300 87
2005-10-17 06:45:08 51°15.325 2°54.32 -999 61 10.2 102300 87
2005-10-17 06:45:12 51°15.337 2°54.312 -999 64 10.3 102290 88
2005-10-17 06:45:18 51°15.356 2°54.299 -999 58 10.3 102290 88
2005-10-17 06:45:22 51°15.369 2°54.29 -999 61 10.3 102290 88
2005-10-17 06:45:27 51°15.384 2°54.28 -999 60 10.3 102290 88
2005-10-17 06:45:32 51°15.4 2°54.269 -999 55 10.3 102300 88
2005-10-17 06:45:36 51°15.413 2°54.261 -999 54 10.3 102300 88
2005-10-17 06:45:42 51°15.432 2°54.249 -999 53 10.3 102300 88
2005-10-17 06:45:48 51°15.451 2°54.239 -999 59 10.3 102300 88
2005-10-17 06:45:52 51°15.465 2°54.233 -999 64 10.3 102300 87
2005-10-17 06:45:56 51°15.478 2°54.229 -999 56 10.3 102300 87
2005-10-17 06:46:02 51°15.498 2°54.223 -999 65 10.3 102290 87
2005-10-17 06:46:08 51°15.518 2°54.219 -999 63 10.3 102290 87
2005-10-17 06:46:12 51°15.531 2°54.216 -999 64 10.3 102300 88
2005-10-17 06:46:18 51°15.551 2°54.211 -999 61 10.3 102300 88
2005-10-17 06:46:22 51°15.565 2°54.208 -999 62 10.3 102290 88
2005-10-17 06:46:28 51°15.585 2°54.203 -999 67 10.3 102290 88
2005-10-17 06:46:32 51°15.598 2°54.199 -999 74 10.3 102290 88
2005-10-17 06:46:38 51°15.618 2°54.194 -999 58 10.3 102290 88
2005-10-17 06:46:42 51°15.632 2°54.19 -999 63 10.3 102290 88
2005-10-17 06:46:48 51°15.652 2°54.184 -999 60 10.3 102290 88
2005-10-17 06:46:52 51°15.665 2°54.18 -999 62 10.3 102290 88
2005-10-17 06:46:56 51°15.679 2°54.177 -999 71 10.3 102290 88
2005-10-17 06:47:02 51°15.699 2°54.173 -999 72 10.3 102290 88
2005-10-17 06:47:07 51°15.716 2°54.17 -999 65 10.3 102290 88
2005-10-17 06:47:12 51°15.732 2°54.167 -999 56 10.3 102290 88
2005-10-17 06:47:18 51°15.753 2°54.163 -999 58 10.3 102290 88
2005-10-17 06:47:22 51°15.766 2°54.161 -999 70 10.3 102290 88
2005-10-17 06:47:27 51°15.782 2°54.157 -999 62 10.3 102290 88
2005-10-17 06:47:32 51°15.799 2°54.154 -999 68 10.3 102290 88
2005-10-17 06:47:38 51°15.819 2°54.15 -999 72 10.3 102290 88
2005-10-17 06:47:42 51°15.832 2°54.148 -999 70 10.3 102280 88
2005-10-17 06:47:48 51°15.852 2°54.146 -999 59 10.3 102280 88
2005-10-17 06:47:52 51°15.865 2°54.146 -999 64 10.4 102290 88
2005-10-17 06:47:56 51°15.878 2°54.147 -999 60 10.4 102290 88
2005-10-17 06:48:02 51°15.896 2°54.15 -999 56 10.3 102290 88
2005-10-17 06:48:08 51°15.912 2°54.157 -999 65 10.3 102290 88
2005-10-17 06:48:12 51°15.922 2°54.161 -999 66 10.3 102290 88
2005-10-17 06:48:16 51°15.932 2°54.166 -999 76 10.3 102290 88
2005-10-17 06:48:22 51°15.946 2°54.172 -999 65 10.3 102290 88
2005-10-17 06:48:28 51°15.96 2°54.178 -999 76 10.3 102290 88
2005-10-17 06:48:32 51°15.969 2°54.181 -999 78 10.3 102290 89
2005-10-17 06:48:36 51°15.977 2°54.185 -999 76 10.3 102290 89
2005-10-17 06:48:42 51°15.99 2°54.19 -999 84 10.3 102280 88
2005-10-17 06:48:47 51°16.001 2°54.195 -999 82 10.3 102280 88
2005-10-17 06:48:52 51°16.01 2°54.199 -999 80 10.3 102280 88
2005-10-17 06:48:56 51°16.018 2°54.203 -999 70 10.3 102280 88
2005-10-17 06:49:02 51°16.03 2°54.208 -999 74 10.3 102280 88
2005-10-17 06:49:08 51°16.042 2°54.213 -999 77 10.3 102280 88
2005-10-17 06:49:12 51°16.05 2°54.216 -999 76 10.3 102290 87
2005-10-17 06:49:18 51°16.062 2°54.219 -999 82 10.3 102290 87
2005-10-17 06:49:22 51°16.07 2°54.221 -999 85 10.4 102280 88
2005-10-17 06:49:27 51°16.08 2°54.222 -999 81 10.4 102280 88
2005-10-17 06:49:32 51°16.091 2°54.223 -999 92 10.4 102280 88
2005-10-17 06:49:38 51°16.103 2°54.224 -999 84 10.4 102280 88
2005-10-17 06:49:42 51°16.111 2°54.225 -999 81 10.4 102290 88
2005-10-17 06:49:48 51°16.124 2°54.226 -999 85 10.4 102290 88
2005-10-17 06:49:52 51°16.131 2°54.227 -999 88 10.4 102290 88
2005-10-17 06:49:56 51°16.139 2°54.228 -999 85 10.4 102290 88
2005-10-17 06:50:02 51°16.15 2°54.229 -999 91 10.4 102290 88
2005-10-17 06:50:08 51°16.16 2°54.231 -999 93 10.4 102290 88
2005-10-17 06:50:12 51°16.166 2°54.233 -999 96 10.4 102290 88
2005-10-17 06:50:16 51°16.172 2°54.234 -999 92 10.4 102290 88
2005-10-17 06:50:22 51°16.181 2°54.237 -999 92 10.4 102290 87
2005-10-17 06:50:27 51°16.187 2°54.24 -999 85 10.4 102290 87
2005-10-17 06:50:32 51°16.193 2°54.244 -999 84 10.3 102280 87
2005-10-17 06:50:38 51°16.2 2°54.249 -999 80 10.3 102280 87
2005-10-17 06:50:42 51°16.204 2°54.252 -999 90 10.4 102290 86
2005-10-17 06:50:47 51°16.208 2°54.256 -999 72 10.4 102290 86
2005-10-17 06:50:52 51°16.211 2°54.261 -999 71 10.4 102290 87
2005-10-17 06:50:57 51°16.215 2°54.265 -999 72 10.4 102290 87
2005-10-17 06:51:03 51°16.218 2°54.269 -999 77 10.4 102290 88
2005-10-17 06:51:08 51°16.22 2°54.273 -999 74 10.4 102290 88
2005-10-17 06:51:12 51°16.222 2°54.275 -999 78 10.5 102290 88
2005-10-17 06:51:18 51°16.223 2°54.278 -999 82 10.5 102290 88
2005-10-17 06:51:22 51°16.224 2°54.279 -999 80 10.4 102290 88
2005-10-17 06:51:28 51°16.225 2°54.28 -999 82 10.4 102290 88
2005-10-17 06:51:32 51°16.226 2°54.281 -999 84 10.5 102290 88
2005-10-17 06:51:38 51°16.227 2°54.281 -999 87 10.5 102290 88
2005-10-17 06:51:42 51°16.228 2°54.281 -999 92 10.5 102290 88
2005-10-17 06:51:48 51°16.229 2°54.282 -999 98 10.5 102290 88
2005-10-17 06:51:52 51°16.23 2°54.281 -999 91 10.5 102290 88
2005-10-17 06:51:56 51°16.231 2°54.281 -999 93 10.5 102290 88
2005-10-17 06:52:02 51°16.232 2°54.281 -999 97 10.4 102290 87
2005-10-17 06:52:08 51°16.233 2°54.281 -999 100 10.4 102290 87
2005-10-17 06:52:12 51°16.233 2°54.28 -999 101 10.5 102290 87
2005-10-17 06:52:18 51°16.234 2°54.28 -999 101 10.5 102290 87
2005-10-17 06:52:22 51°16.235 2°54.279 -999 104 10.5 102290 88
2005-10-17 06:52:28 51°16.236 2°54.278 -999 99 10.5 102290 88
2005-10-17 06:52:32 51°16.236 2°54.278 -999 109 10.5 102290 88
2005-10-17 06:52:36 51°16.237 2°54.277 -999 104 10.5 102290 88
2005-10-17 06:52:42 51°16.237 2°54.276 -999 99 10.4 102290 87
2005-10-17 06:52:48 51°16.238 2°54.275 -999 104 10.4 102290 87
2005-10-17 06:52:52 51°16.238 2°54.274 -999 104 10.4 102290 86
2005-10-17 06:52:58 51°16.239 2°54.273 -999 100 10.4 102290 86
2005-10-17 06:53:02 51°16.239 2°54.272 -999 102 10.4 102300 86
2005-10-17 06:53:08 51°16.239 2°54.27 -999 107 10.4 102300 86
2005-10-17 06:53:12 51°16.239 2°54.27 -999 103 10.5 102290 86
2005-10-17 06:53:18 51°16.24 2°54.268 -999 101 10.5 102290 86
2005-10-17 06:53:23 51°16.24 2°54.267 -999 98 10.5 102290 87
2005-10-17 06:53:28 51°16.24 2°54.266 -999 98 10.5 102290 87
2005-10-17 06:53:32 51°16.24 2°54.264 -999 95 10.5 102290 87
2005-10-17 06:53:38 51°16.24 2°54.262 -999 96 10.5 102290 87
2005-10-17 06:53:42 51°16.24 2°54.261 -999 100 10.5 102290 86
2005-10-17 06:53:48 51°16.24 2°54.26 -999 96 10.5 102290 86
2005-10-17 06:53:52 51°16.24 2°54.258 -999 97 10.5 102290 86
2005-10-17 06:53:58 51°16.24 2°54.256 -999 97 10.5 102290 86
2005-10-17 06:54:02 51°16.24 2°54.255 -999 100 10.4 102290 86
2005-10-17 06:54:08 51°16.24 2°54.253 -999 98 10.4 102290 86
2005-10-17 06:54:12 51°16.239 2°54.252 -999 103 10.5 102300 86
2005-10-17 06:54:16 51°16.239 2°54.25 -999 99 10.5 102300 86
2005-10-17 06:54:23 51°16.239 2°54.248 -999 103 10.4 102290 85
2005-10-17 06:54:28 51°16.238 2°54.246 -999 101 10.4 102290 85
2005-10-17 06:54:32 51°16.238 2°54.244 -999 103 10.4 102300 85
2005-10-17 06:54:36 51°16.238 2°54.242 -999 106 10.4 102300 85
2005-10-17 06:54:43 51°16.238 2°54.239 -999 106 10.4 102290 85
2005-10-17 06:54:48 51°16.237 2°54.237 -999 106 10.4 102290 85
2005-10-17 06:54:52 51°16.237 2°54.236 -999 109 10.4 102290 85
2005-10-17 06:54:56 51°16.236 2°54.234 -999 102 10.4 102290 85
2005-10-17 06:55:03 51°16.236 2°54.231 -999 95 10.4 102300 85
2005-10-17 06:55:08 51°16.235 2°54.229 -999 98 10.4 102300 85
2005-10-17 06:55:12 51°16.235 2°54.227 -999 100 10.4 102300 85
2005-10-17 06:55:16 51°16.234 2°54.225 -999 101 10.4 102300 85
2005-10-17 06:55:22 51°16.233 2°54.222 -999 96 10.4 102290 85
2005-10-17 06:55:28 51°16.232 2°54.22 -999 97 10.4 102290 85
2005-10-17 06:55:32 51°16.232 2°54.218 -999 94 10.4 102290 85
2005-10-17 06:55:38 51°16.231 2°54.215 -999 98 10.4 102290 85
2005-10-17 06:55:42 51°16.231 2°54.213 -999 100 10.4 102290 85
2005-10-17 06:55:48 51°16.23 2°54.21 -999 95 10.4 102290 85
2005-10-17 06:55:52 51°16.23 2°54.208 -999 101 10.4 102290 85
2005-10-17 06:55:56 51°16.229 2°54.206 -999 93 10.4 102290 85
2005-10-17 06:56:02 51°16.228 2°54.203 -999 93 10.4 102290 85
2005-10-17 06:56:07 51°16.227 2°54.201 -999 98 10.4 102290 85
2005-10-17 06:56:12 51°16.227 2°54.198 -999 99 10.4 102300 85
2005-10-17 06:56:18 51°16.226 2°54.195 -999 93 10.4 102300 85
2005-10-17 06:56:22 51°16.226 2°54.193 -999 89 10.4 102300 85
2005-10-17 06:56:27 51°16.225 2°54.19 -999 94 10.4 102300 85
2005-10-17 06:56:32 51°16.224 2°54.188 -999 96 10.4 102290 86
2005-10-17 06:56:38 51°16.224 2°54.185 -999 99 10.4 102290 86
2005-10-17 06:56:42 51°16.223 2°54.182 -999 97 10.4 102300 86
2005-10-17 06:56:48 51°16.222 2°54.179 -999 99 10.4 102300 86
2005-10-17 06:56:52 51°16.221 2°54.177 -999 97 10.4 102300 86
2005-10-17 06:56:56 51°16.221 2°54.175 -999 90 10.4 102300 86
2005-10-17 06:57:02 51°16.22 2°54.171 -999 94 10.4 102290 85
2005-10-17 06:57:07 51°16.219 2°54.168 -999 93 10.4 102290 85
2005-10-17 06:57:12 51°16.218 2°54.165 -999 94 10.4 102290 85
2005-10-17 06:57:16 51°16.217 2°54.164 -999 94 10.4 102290 85
2005-10-17 06:57:22 51°16.216 2°54.16 -999 92 10.4 102300 85
2005-10-17 06:57:28 51°16.215 2°54.156 -999 100 10.4 102300 85
2005-10-17 06:57:32 51°16.215 2°54.154 -999 100 10.4 102290 85
2005-10-17 06:57:36 51°16.214 2°54.152 -999 102 10.4 102290 85
2005-10-17 06:57:42 51°16.212 2°54.149 -999 101 10.4 102290 86
2005-10-17 06:57:48 51°16.211 2°54.145 -999 100 10.4 102290 86
2005-10-17 06:57:52 51°16.211 2°54.142 -999 104 10.4 102290 85
2005-10-17 06:57:56 51°16.21 2°54.14 -999 104 10.4 102290 85
2005-10-17 06:58:02 51°16.209 2°54.136 -999 101 10.4 102290 85
2005-10-17 06:58:08 51°16.208 2°54.133 -999 93 10.4 102290 85
2005-10-17 06:58:12 51°16.207 2°54.13 -999 95 10.4 102300 85
2005-10-17 06:58:16 51°16.206 2°54.128 -999 100 10.4 102300 85
2005-10-17 06:58:22 51°16.205 2°54.125 -999 97 10.4 102290 85
2005-10-17 06:58:28 51°16.203 2°54.121 -999 93 10.4 102290 85
2005-10-17 06:58:32 51°16.202 2°54.119 -999 96 10.4 102290 85
2005-10-17 06:58:38 51°16.201 2°54.115 -999 107 10.4 102290 85
2005-10-17 06:58:42 51°16.2 2°54.113 -999 103 10.5 102290 87
2005-10-17 06:58:47 51°16.199 2°54.11 -999 97 10.5 102290 87
2005-10-17 06:58:52 51°16.198 2°54.107 -999 100 10.5 102300 86
2005-10-17 06:58:58 51°16.197 2°54.103 -999 100 10.5 102300 86
2005-10-17 06:59:02 51°16.196 2°54.1 -999 97 10.5 102300 87
2005-10-17 06:59:08 51°16.195 2°54.096 -999 103 10.5 102300 87
2005-10-17 06:59:12 51°16.194 2°54.094 -999 101 10.4 102290 86
2005-10-17 06:59:16 51°16.193 2°54.091 -999 96 10.4 102290 86
2005-10-17 06:59:22 51°16.192 2°54.087 -999 95 10.4 102300 86
2005-10-17 06:59:28 51°16.191 2°54.084 -999 91 10.4 102300 86
2005-10-17 06:59:32 51°16.19 2°54.081 -999 100 10.4 102290 86
2005-10-17 06:59:38 51°16.188 2°54.077 -999 97 10.4 102290 86
2005-10-17 06:59:42 51°16.188 2°54.075 -999 98 10.5 102300 87
2005-10-17 06:59:48 51°16.186 2°54.071 -999 96 10.5 102300 87
2005-10-17 06:59:52 51°16.186 2°54.068 -999 99 10.5 102290 87
2005-10-17 06:59:56 51°16.185 2°54.065 -999 103 10.5 102290 87
2005-10-17 07:00:02 51°16.184 2°54.061 -999 100 10.5 102290 87
2005-10-17 07:00:08 51°16.182 2°54.057 -999 100 10.5 102290 87
2005-10-17 07:00:12 51°16.181 2°54.054 -999 100 10.4 102290 86
2005-10-17 07:00:16 51°16.18 2°54.052 -999 86 10.4 102290 86
2005-10-17 07:00:22 51°16.179 2°54.048 -999 87 10.4 102290 86
2005-10-17 07:00:28 51°16.178 2°54.044 -999 88 10.4 102290 86
2005-10-17 07:00:32 51°16.177 2°54.041 -999 91 10.4 102300 86
2005-10-17 07:00:38 51°16.176 2°54.037 -999 95 10.4 102300 86
2005-10-17 07:00:42 51°16.175 2°54.034 -999 96 10.4 102290 86
2005-10-17 07:00:47 51°16.174 2°54.031 -999 100 10.4 102290 86
2005-10-17 07:00:52 51°16.173 2°54.028 -999 97 10.5 102290 86
2005-10-17 07:00:58 51°16.171 2°54.024 -999 97 10.5 102290 86
2005-10-17 07:01:03 51°16.17 2°54.021 -999 89 10.5 102290 86
2005-10-17 07:01:07 51°16.17 2°54.019 -999 97 10.5 102290 86
2005-10-17 07:01:12 51°16.169 2°54.016 -999 93 10.4 102290 86
2005-10-17 07:01:17 51°16.168 2°54.013 -999 94 10.4 102290 86
2005-10-17 07:01:23 51°16.167 2°54.009 -999 92 10.4 102300 86
2005-10-17 07:01:28 51°16.167 2°54.006 -999 97 10.4 102300 86
2005-10-17 07:01:32 51°16.166 2°54.004 -999 103 10.5 102280 86
2005-10-17 07:01:36 51°16.166 2°54.002 -999 96 10.5 102280 86
2005-10-17 07:01:43 51°16.165 2°53.998 -999 104 10.4 102290 86
2005-10-17 07:01:48 51°16.164 2°53.996 -999 95 10.4 102290 86
2005-10-17 07:01:52 51°16.164 2°53.994 -999 87 10.4 102290 86
2005-10-17 07:01:58 51°16.163 2°53.992 -999 90 10.4 102290 86
2005-10-17 07:02:02 51°16.163 2°53.99 -999 89 10.4 102290 86
2005-10-17 07:02:07 51°16.163 2°53.988 -999 88 10.4 102290 86
2005-10-17 07:02:12 51°16.162 2°53.986 -999 86 10.4 102290 86
2005-10-17 07:02:16 51°16.162 2°53.984 -999 85 10.4 102290 86
2005-10-17 07:02:22 51°16.162 2°53.982 -999 82 10.4 102290 87
2005-10-17 07:02:27 51°16.161 2°53.98 -999 83 10.4 102290 87
2005-10-17 07:02:32 51°16.161 2°53.978 -999 84 10.5 102290 87
2005-10-17 07:02:36 51°16.161 2°53.977 -999 85 10.5 102290 87
2005-10-17 07:02:42 51°16.16 2°53.975 -999 85 10.5 102290 87
2005-10-17 07:02:47 51°16.16 2°53.973 -999 78 10.5 102290 87
2005-10-17 07:02:52 51°16.16 2°53.972 -999 84 10.5 102290 88
2005-10-17 07:02:58 51°16.16 2°53.97 -999 84 10.5 102290 88
2005-10-17 07:03:02 51°16.159 2°53.969 -999 86 10.5 102290 88
2005-10-17 07:03:08 51°16.159 2°53.967 -999 84 10.5 102290 88
2005-10-17 07:03:12 51°16.159 2°53.966 -999 84 10.5 102290 88
2005-10-17 07:03:16 51°16.159 2°53.965 -999 84 10.5 102290 88
2005-10-17 07:03:22 51°16.159 2°53.963 -999 83 10.5 102290 88
2005-10-17 07:03:28 51°16.158 2°53.962 -999 79 10.5 102290 88
2005-10-17 07:03:32 51°16.158 2°53.961 -999 81 10.5 102290 88
2005-10-17 07:03:36 51°16.158 2°53.96 -999 84 10.5 102290 88
2005-10-17 07:03:42 51°16.158 2°53.959 -999 83 10.5 102290 87
2005-10-17 07:03:48 51°16.158 2°53.957 -999 83 10.5 102290 87
2005-10-17 07:03:52 51°16.157 2°53.957 -999 83 10.5 102290 87
2005-10-17 07:03:56 51°16.157 2°53.956 -999 82 10.5 102290 87
2005-10-17 07:04:02 51°16.157 2°53.954 -999 83 10.6 102280 88
2005-10-17 07:04:07 51°16.157 2°53.953 -999 88 10.6 102280 88
2005-10-17 07:04:12 51°16.157 2°53.952 -999 84 10.5 102290 87
2005-10-17 07:04:16 51°16.157 2°53.951 -999 85 10.5 102290 87
2005-10-17 07:04:22 51°16.157 2°53.949 -999 87 10.5 102290 86
2005-10-17 07:04:28 51°16.156 2°53.947 -999 84 10.5 102290 86
2005-10-17 07:04:32 51°16.156 2°53.946 -999 84 10.5 102290 86
2005-10-17 07:04:36 51°16.156 2°53.945 -999 86 10.5 102290 86
2005-10-17 07:04:42 51°16.156 2°53.943 -999 91 10.5 102290 86
2005-10-17 07:04:48 51°16.155 2°53.941 -999 77 10.5 102290 86
2005-10-17 07:04:52 51°16.155 2°53.94 -999 82 10.5 102290 87
2005-10-17 07:04:56 51°16.154 2°53.938 -999 80 10.5 102290 87
2005-10-17 07:05:02 51°16.154 2°53.936 -999 74 10.5 102300 86
2005-10-17 07:05:08 51°16.153 2°53.934 -999 80 10.5 102300 86
2005-10-17 07:05:12 51°16.153 2°53.932 -999 77 10.5 102290 87
2005-10-17 07:05:16 51°16.152 2°53.93 -999 83 10.5 102290 87
2005-10-17 07:05:22 51°16.152 2°53.928 -999 85 10.6 102290 88
2005-10-17 07:05:28 51°16.151 2°53.925 -999 87 10.6 102290 88
2005-10-17 07:05:32 51°16.15 2°53.924 -999 95 10.6 102280 88
2005-10-17 07:05:38 51°16.149 2°53.921 -999 89 10.6 102280 88
2005-10-17 07:05:43 51°16.149 2°53.919 -999 87 10.5 102290 87
2005-10-17 07:05:48 51°16.148 2°53.917 -999 91 10.5 102290 87
2005-10-17 07:05:52 51°16.148 2°53.915 -999 90 10.5 102290 87
2005-10-17 07:05:58 51°16.147 2°53.912 -999 87 10.5 102290 87
2005-10-17 07:06:02 51°16.146 2°53.91 -999 90 10.5 102290 86
2005-10-17 07:06:08 51°16.146 2°53.907 -999 94 10.5 102290 86
2005-10-17 07:06:12 51°16.145 2°53.905 -999 92 10.5 102290 86
2005-10-17 07:06:16 51°16.144 2°53.903 -999 93 10.5 102290 86
2005-10-17 07:06:22 51°16.143 2°53.9 -999 93 10.4 102290 85
2005-10-17 07:06:28 51°16.142 2°53.897 -999 91 10.4 102290 85
2005-10-17 07:06:32 51°16.141 2°53.895 -999 92 10.4 102290 85
2005-10-17 07:06:38 51°16.141 2°53.892 -999 88 10.4 102290 85
2005-10-17 07:06:42 51°16.14 2°53.89 -999 89 10.4 102300 86
2005-10-17 07:06:48 51°16.139 2°53.886 -999 83 10.4 102300 86
2005-10-17 07:06:52 51°16.138 2°53.884 -999 89 10.4 102290 86
2005-10-17 07:06:56 51°16.137 2°53.882 -999 92 10.4 102290 86
2005-10-17 07:07:02 51°16.136 2°53.879 -999 93 10.5 102290 86
2005-10-17 07:07:07 51°16.135 2°53.876 -999 93 10.5 102290 86
2005-10-17 07:07:12 51°16.134 2°53.873 -999 91 10.5 102290 86
2005-10-17 07:07:16 51°16.133 2°53.871 -999 82 10.5 102290 86
2005-10-17 07:07:22 51°16.131 2°53.868 -999 79 10.5 102300 87
2005-10-17 07:07:28 51°16.13 2°53.865 -999 85 10.5 102300 87
2005-10-17 07:07:32 51°16.129 2°53.862 -999 83 10.5 102290 87
2005-10-17 07:07:38 51°16.128 2°53.859 -999 84 10.5 102290 87
2005-10-17 07:07:42 51°16.127 2°53.856 -999 84 10.5 102290 88
2005-10-17 07:07:48 51°16.125 2°53.853 -999 82 10.5 102290 88
2005-10-17 07:07:52 51°16.124 2°53.85 -999 83 10.6 102290 88
2005-10-17 07:07:56 51°16.124 2°53.849 -999 85 10.6 102290 88
2005-10-17 07:08:02 51°16.122 2°53.845 -999 83 10.6 102290 88
2005-10-17 07:08:08 51°16.121 2°53.841 -999 83 10.6 102290 88
2005-10-17 07:08:12 51°16.12 2°53.839 -999 82 10.5 102290 87
2005-10-17 07:08:18 51°16.119 2°53.835 -999 87 10.5 102290 87
2005-10-17 07:08:22 51°16.118 2°53.833 -999 90 10.5 102290 87
2005-10-17 07:08:28 51°16.116 2°53.829 -999 89 10.5 102290 87
2005-10-17 07:08:32 51°16.116 2°53.827 -999 86 10.5 102290 87
2005-10-17 07:08:38 51°16.114 2°53.823 -999 84 10.5 102290 87
2005-10-17 07:08:43 51°16.113 2°53.82 -999 84 10.5 102290 87
2005-10-17 07:08:48 51°16.112 2°53.817 -999 85 10.5 102290 87
2005-10-17 07:08:52 51°16.111 2°53.815 -999 87 10.5 102290 87
2005-10-17 07:08:56 51°16.11 2°53.812 -999 83 10.5 102290 87
2005-10-17 07:09:03 51°16.109 2°53.808 -999 82 10.5 102290 87
2005-10-17 07:09:08 51°16.108 2°53.806 -999 79 10.5 102290 87
2005-10-17 07:09:12 51°16.108 2°53.805 -999 78 10.5 102290 86
2005-10-17 07:09:18 51°16.108 2°53.803 -999 83 10.5 102290 86
2005-10-17 07:09:22 51°16.108 2°53.803 -999 83 10.5 102300 86
2005-10-17 07:09:28 51°16.109 2°53.802 -999 85 10.5 102300 86
2005-10-17 07:09:32 51°16.11 2°53.802 -999 97 10.5 102290 86
2005-10-17 07:09:38 51°16.112 2°53.802 -999 93 10.5 102290 86
2005-10-17 07:09:42 51°16.114 2°53.801 -999 103 10.5 102280 86
2005-10-17 07:09:47 51°16.117 2°53.8 -999 113 10.5 102280 86
2005-10-17 07:09:52 51°16.121 2°53.797 -999 118 10.5 102290 86
2005-10-17 07:09:58 51°16.125 2°53.793 -999 130 10.5 102290 86
2005-10-17 07:10:02 51°16.128 2°53.79 -999 135 10.5 102280 86
2005-10-17 07:10:08 51°16.132 2°53.783 -999 149 10.5 102280 86
2005-10-17 07:10:12 51°16.135 2°53.777 -999 156 10.5 102280 86
2005-10-17 07:10:18 51°16.139 2°53.768 -999 169 10.5 102280 86
2005-10-17 07:10:22 51°16.142 2°53.76 -999 169 10.4 102290 85
2005-10-17 07:10:28 51°16.145 2°53.748 -999 173 10.4 102290 85
2005-10-17 07:10:32 51°16.146 2°53.739 -999 193 10.4 102290 85
2005-10-17 07:10:38 51°16.148 2°53.725 -999 239 10.4 102290 85
2005-10-17 07:10:43 51°16.148 2°53.713 -999 226 10.4 102300 85
2005-10-17 07:10:48 51°16.147 2°53.7 -999 229 10.4 102300 85
2005-10-17 07:10:52 51°16.147 2°53.689 -999 236 10.4 102300 85
2005-10-17 07:10:56 51°16.146 2°53.677 -999 243 10.4 102300 85
2005-10-17 07:11:03 51°16.144 2°53.655 -999 242 10.4 102300 86
2005-10-17 07:11:08 51°16.143 2°53.636 -999 251 10.4 102300 86
2005-10-17 07:11:12 51°16.143 2°53.62 -999 256 10.4 102300 86
2005-10-17 07:11:18 51°16.144 2°53.595 -999 267 10.4 102300 86
2005-10-17 07:11:22 51°16.146 2°53.577 -999 315 10.4 102290 85
2005-10-17 07:11:28 51°16.147 2°53.55 -999 253 10.4 102290 85
2005-10-17 07:11:32 51°16.148 2°53.53 -999 253 10.4 102300 85
2005-10-17 07:11:36 51°16.149 2°53.51 -999 258 10.4 102300 85
2005-10-17 07:11:42 51°16.15 2°53.48 -999 257 10.4 102300 85
2005-10-17 07:11:48 51°16.151 2°53.448 -999 264 10.4 102300 85
2005-10-17 07:11:52 51°16.151 2°53.427 -999 269 10.4 102300 85
2005-10-17 07:11:58 51°16.152 2°53.394 -999 283 10.4 102300 85
2005-10-17 07:12:02 51°16.152 2°53.371 -999 288 10.4 102290 86
2005-10-17 07:12:08 51°16.153 2°53.337 -999 294 10.4 102290 86
2005-10-17 07:12:12 51°16.153 2°53.313 -999 291 10.4 102290 85
2005-10-17 07:12:18 51°16.153 2°53.277 -999 296 10.4 102290 85
2005-10-17 07:12:22 51°16.153 2°53.253 -999 296 10.4 102290 85
2005-10-17 07:12:28 51°16.153 2°53.217 -999 301 10.4 102290 85
2005-10-17 07:12:32 51°16.153 2°53.193 -999 293 10.5 102290 86
2005-10-17 07:12:36 51°16.152 2°53.168 -999 289 10.5 102290 86
2005-10-17 07:12:42 51°16.152 2°53.131 -999 286 10.5 102290 86
2005-10-17 07:12:48 51°16.152 2°53.095 -999 287 10.5 102290 86
2005-10-17 07:12:52 51°16.152 2°53.07 -999 291 10.5 102290 86
2005-10-17 07:12:58 51°16.153 2°53.034 -999 300 10.5 102290 86
2005-10-17 07:13:02 51°16.154 2°53.009 -999 292 10.5 102290 86
2005-10-17 07:13:07 51°16.155 2°52.979 -999 276 10.5 102290 86
2005-10-17 07:13:12 51°16.156 2°52.949 -999 282 10.5 102300 86
2005-10-17 07:13:16 51°16.157 2°52.925 -999 289 10.5 102300 86
2005-10-17 07:13:22 51°16.158 2°52.889 -999 283 10.5 102290 86
2005-10-17 07:13:28 51°16.16 2°52.852 -999 278 10.5 102290 86
2005-10-17 07:13:32 51°16.161 2°52.828 -999 282 10.5 102300 86
2005-10-17 07:13:36 51°16.161 2°52.804 -999 285 10.5 102300 86
2005-10-17 07:13:42 51°16.163 2°52.767 -999 292 10.5 102290 86
2005-10-17 07:13:48 51°16.164 2°52.731 -999 303 10.5 102290 86
2005-10-17 07:13:52 51°16.164 2°52.707 -999 287 10.5 102300 86
2005-10-17 07:13:56 51°16.165 2°52.683 -999 292 10.5 102300 86
2005-10-17 07:14:02 51°16.166 2°52.646 -999 292 10.5 102290 86
2005-10-17 07:14:08 51°16.168 2°52.609 -999 306 10.5 102290 86
2005-10-17 07:14:12 51°16.169 2°52.585 -999 299 10.5 102290 86
2005-10-17 07:14:16 51°16.171 2°52.561 -999 302 10.5 102290 86
2005-10-17 07:14:23 51°16.173 2°52.519 -999 227 10.5 102290 86
2005-10-17 07:14:28 51°16.175 2°52.488 -999 307 10.5 102290 86
2005-10-17 07:14:32 51°16.176 2°52.464 -999 299 10.5 102290 86
2005-10-17 07:14:38 51°16.178 2°52.428 -999 295 10.5 102290 86
2005-10-17 07:14:42 51°16.179 2°52.404 -999 299 10.5 102290 86
2005-10-17 07:14:47 51°16.181 2°52.374 -999 298 10.5 102290 86
2005-10-17 07:14:52 51°16.182 2°52.343 -999 298 10.6 102280 87
2005-10-17 07:14:58 51°16.184 2°52.307 -999 304 10.6 102280 87
2005-10-17 07:15:02 51°16.185 2°52.283 -999 307 10.6 102290 87
2005-10-17 07:15:08 51°16.187 2°52.247 -999 299 10.6 102290 87
2005-10-17 07:15:12 51°16.188 2°52.223 -999 290 10.6 102300 87
2005-10-17 07:15:16 51°16.19 2°52.199 -999 288 10.6 102300 87
2005-10-17 07:15:23 51°16.192 2°52.157 -999 281 10.6 102290 86
2005-10-17 07:15:28 51°16.194 2°52.127 -999 278 10.6 102290 86
2005-10-17 07:15:32 51°16.195 2°52.102 -999 282 10.6 102280 86
2005-10-17 07:15:36 51°16.197 2°52.078 -999 290 10.6 102280 86
2005-10-17 07:15:42 51°16.199 2°52.043 -999 294 10.6 102290 86
2005-10-17 07:15:48 51°16.2 2°52.006 -999 297 10.6 102290 86
2005-10-17 07:15:52 51°16.202 2°51.982 -999 309 10.5 102290 86
2005-10-17 07:15:56 51°16.203 2°51.958 -999 292 10.5 102290 86
2005-10-17 07:16:02 51°16.205 2°51.922 -999 291 10.5 102290 86
2005-10-17 07:16:08 51°16.207 2°51.886 -999 291 10.5 102290 86
2005-10-17 07:16:12 51°16.208 2°51.862 -999 305 10.6 102290 86
2005-10-17 07:16:18 51°16.21 2°51.826 -999 286 10.6 102290 86
2005-10-17 07:16:22 51°16.211 2°51.802 -999 284 10.6 102290 86
2005-10-17 07:16:27 51°16.212 2°51.772 -999 281 10.6 102290 86
2005-10-17 07:16:32 51°16.214 2°51.742 -999 284 10.5 102280 86
2005-10-17 07:16:38 51°16.216 2°51.706 -999 280 10.5 102280 86
2005-10-17 07:16:42 51°16.217 2°51.682 -999 293 10.6 102280 86
2005-10-17 07:16:47 51°16.218 2°51.652 -999 300 10.6 102280 86
2005-10-17 07:16:52 51°16.22 2°51.622 -999 287 10.6 102290 86
2005-10-17 07:16:56 51°16.221 2°51.598 -999 288 10.6 102290 86
2005-10-17 07:17:02 51°16.223 2°51.562 -999 294 10.6 102290 86
2005-10-17 07:17:08 51°16.224 2°51.526 -999 303 10.6 102290 86
2005-10-17 07:17:12 51°16.225 2°51.502 -999 308 10.6 102290 86
2005-10-17 07:17:16 51°16.227 2°51.478 -999 282 10.6 102290 86
2005-10-17 07:17:22 51°16.228 2°51.443 -999 292 10.6 102280 86
2005-10-17 07:17:28 51°16.23 2°51.407 -999 291 10.6 102280 86
2005-10-17 07:17:32 51°16.231 2°51.383 -999 296 10.6 102280 86
2005-10-17 07:17:36 51°16.232 2°51.359 -999 230 10.6 102280 86
2005-10-17 07:17:42 51°16.235 2°51.324 -999 292 10.6 102290 87
2005-10-17 07:17:48 51°16.238 2°51.289 -999 295 10.6 102290 87
2005-10-17 07:17:52 51°16.24 2°51.265 -999 303 10.7 102280 87
2005-10-17 07:17:56 51°16.242 2°51.242 -999 311 10.7 102280 87
2005-10-17 07:18:02 51°16.247 2°51.207 -999 309 10.7 102290 87
2005-10-17 07:18:08 51°16.251 2°51.173 -999 311 10.7 102290 87
2005-10-17 07:18:12 51°16.254 2°51.15 -999 41 10.7 102300 87
2005-10-17 07:18:18 51°16.258 2°51.115 -999 299 10.7 102300 87
2005-10-17 07:18:22 51°16.261 2°51.092 -999 295 10.7 102290 87
2005-10-17 07:18:28 51°16.265 2°51.057 -999 303 10.7 102290 87
2005-10-17 07:18:32 51°16.268 2°51.033 -999 300 10.7 102290 87
2005-10-17 07:18:36 51°16.271 2°51.011 -999 302 10.7 102290 87
2005-10-17 07:18:42 51°16.275 2°50.976 -999 300 10.7 102290 87
2005-10-17 07:18:48 51°16.279 2°50.941 -999 294 10.7 102290 87
2005-10-17 07:18:52 51°16.282 2°50.918 -999 298 10.7 102300 87
2005-10-17 07:18:58 51°16.287 2°50.884 -999 322 10.7 102300 87
2005-10-17 07:19:02 51°16.291 2°50.861 -999 323 10.7 102300 87
2005-10-17 07:19:07 51°16.296 2°50.833 -999 311 10.7 102300 87
2005-10-17 07:19:12 51°16.301 2°50.805 -999 316 10.7 102300 86
2005-10-17 07:19:18 51°16.308 2°50.771 -999 302 10.7 102300 86
2005-10-17 07:19:22 51°16.312 2°50.749 -999 298 10.7 102300 86
2005-10-17 07:19:28 51°16.318 2°50.715 -999 294 10.7 102300 86
2005-10-17 07:19:32 51°16.322 2°50.693 -999 286 10.7 102300 86
2005-10-17 07:19:36 51°16.326 2°50.671 -999 276 10.7 102300 86
2005-10-17 07:19:43 51°16.335 2°50.633 -999 277 10.7 102300 86
2005-10-17 07:19:48 51°16.341 2°50.606 -999 269 10.7 102300 86
2005-10-17 07:19:52 51°16.346 2°50.584 -999 268 10.7 102290 86
2005-10-17 07:19:58 51°16.354 2°50.552 -999 260 10.7 102290 86
2005-10-17 07:20:03 51°16.362 2°50.526 -999 248 10.7 102290 86
2005-10-17 07:20:07 51°16.368 2°50.506 -999 222 10.7 102290 86
2005-10-17 07:20:12 51°16.376 2°50.481 -999 214 10.7 102290 86
2005-10-17 07:20:18 51°16.387 2°50.452 -999 190 10.7 102290 86
2005-10-17 07:20:22 51°16.395 2°50.434 -999 189 10.7 102300 86
2005-10-17 07:20:28 51°16.406 2°50.405 -999 190 10.7 102300 86
2005-10-17 07:20:32 51°16.413 2°50.385 -999 191 10.7 102300 86
2005-10-17 07:20:36 51°16.421 2°50.367 -999 183 10.7 102300 86
2005-10-17 07:20:42 51°16.433 2°50.338 -999 191 10.7 102300 86
2005-10-17 07:20:48 51°16.445 2°50.308 -999 177 10.7 102300 86
2005-10-17 07:20:52 51°16.453 2°50.288 -999 178 10.7 102290 85
2005-10-17 07:20:56 51°16.46 2°50.268 -999 175 10.7 102290 85
2005-10-17 07:21:02 51°16.47 2°50.237 -999 175 10.7 102300 85
2005-10-17 07:21:08 51°16.481 2°50.206 -999 189 10.7 102300 85
2005-10-17 07:21:12 51°16.487 2°50.184 -999 239 10.7 102300 85
2005-10-17 07:21:18 51°16.497 2°50.153 -999 270 10.7 102300 85
2005-10-17 07:21:22 51°16.503 2°50.132 -999 262 10.7 102290 85
2005-10-17 07:21:27 51°16.51 2°50.106 -999 273 10.7 102290 85
2005-10-17 07:21:32 51°16.518 2°50.079 -999 270 10.7 102290 85
2005-10-17 07:21:38 51°16.527 2°50.048 -999 272 10.7 102290 85
2005-10-17 07:21:42 51°16.534 2°50.027 -999 275 10.7 102300 85
2005-10-17 07:21:48 51°16.543 2°49.995 -999 274 10.7 102300 85
2005-10-17 07:21:52 51°16.549 2°49.974 -999 271 10.7 102300 85
2005-10-17 07:21:56 51°16.556 2°49.953 -999 249 10.7 102300 85
2005-10-17 07:22:03 51°16.566 2°49.918 -999 248 10.7 102300 85
2005-10-17 07:22:08 51°16.573 2°49.894 -999 225 10.7 102300 85
2005-10-17 07:22:12 51°16.578 2°49.876 -999 223 10.7 102290 85
2005-10-17 07:22:18 51°16.586 2°49.851 -999 205 10.7 102290 85
2005-10-17 07:22:23 51°16.593 2°49.833 -999 199 10.7 102300 85
2005-10-17 07:22:27 51°16.599 2°49.82 -999 141 10.7 102300 85
2005-10-17 07:22:32 51°16.606 2°49.805 -999 143 10.7 102290 84
2005-10-17 07:22:38 51°16.615 2°49.79 -999 139 10.7 102290 84
2005-10-17 07:22:42 51°16.621 2°49.783 -999 135 10.8 102300 85
2005-10-17 07:22:48 51°16.629 2°49.774 -999 126 10.8 102300 85
2005-10-17 07:22:52 51°16.635 2°49.769 -999 127 10.8 102290 85
2005-10-17 07:22:56 51°16.64 2°49.765 -999 120 10.8 102290 85
2005-10-17 07:23:02 51°16.647 2°49.759 -999 121 10.8 102300 85
2005-10-17 07:23:08 51°16.653 2°49.755 -999 118 10.8 102300 85
2005-10-17 07:23:12 51°16.658 2°49.754 -999 108 10.8 102290 86
2005-10-17 07:23:18 51°16.663 2°49.753 -999 112 10.8 102290 86
2005-10-17 07:23:22 51°16.667 2°49.752 -999 98 10.8 102290 86
2005-10-17 07:23:28 51°16.672 2°49.754 -999 102 10.8 102290 86
2005-10-17 07:23:32 51°16.674 2°49.754 -999 97 10.9 102290 87
2005-10-17 07:23:38 51°16.678 2°49.756 -999 90 10.9 102290 87
2005-10-17 07:23:42 51°16.68 2°49.758 -999 87 10.9 102290 86
2005-10-17 07:23:48 51°16.683 2°49.761 -999 82 10.9 102290 86
2005-10-17 07:23:52 51°16.685 2°49.763 -999 85 10.9 102280 86
2005-10-17 07:23:56 51°16.686 2°49.765 -999 62 10.9 102280 86
2005-10-17 07:24:02 51°16.688 2°49.769 -999 75 10.9 102290 86
2005-10-17 07:24:08 51°16.689 2°49.773 -999 60 10.9 102290 86
2005-10-17 07:24:12 51°16.689 2°49.776 -999 62 10.9 102280 86
2005-10-17 07:24:18 51°16.69 2°49.78 -999 53 10.9 102280 86
2005-10-17 07:24:22 51°16.69 2°49.783 -999 52 11 102280 87
2005-10-17 07:24:28 51°16.69 2°49.788 -999 44 11 102280 87
2005-10-17 07:24:32 51°16.689 2°49.792 -999 46 11 102290 87
2005-10-17 07:24:38 51°16.688 2°49.797 -999 40 11 102290 87
2005-10-17 07:24:43 51°16.687 2°49.801 -999 37 11 102280 87
2005-10-17 07:24:47 51°16.686 2°49.804 -999 32 11 102280 87
2005-10-17 07:24:52 51°16.685 2°49.808 -999 31 11.1 102280 88
2005-10-17 07:24:58 51°16.683 2°49.812 -999 28 11.1 102280 88
2005-10-17 07:25:02 51°16.682 2°49.814 -999 31 11 102280 87
2005-10-17 07:25:08 51°16.679 2°49.818 -999 29 11 102280 87
2005-10-17 07:25:12 51°16.678 2°49.819 -999 25 11 102280 85
2005-10-17 07:25:16 51°16.677 2°49.82 -999 24 11 102280 85
2005-10-17 07:25:22 51°16.675 2°49.821 -999 20 11 102280 85
2005-10-17 07:25:28 51°16.673 2°49.822 -999 17 11 102280 85
2005-10-17 07:25:32 51°16.671 2°49.822 -999 17 11 102280 85
2005-10-17 07:25:38 51°16.67 2°49.821 -999 12 11 102280 85
2005-10-17 07:25:42 51°16.668 2°49.82 -999 17 11 102280 85
2005-10-17 07:25:48 51°16.667 2°49.819 -999 17 11 102280 85
2005-10-17 07:25:52 51°16.666 2°49.818 -999 13 11 102290 85
2005-10-17 07:25:58 51°16.664 2°49.817 -999 13 11 102290 85
2005-10-17 07:26:03 51°16.662 2°49.815 -999 9 11 102290 85
2005-10-17 07:26:08 51°16.661 2°49.814 -999 359 11 102290 85
2005-10-17 07:26:12 51°16.66 2°49.813 -999 359 11 102290 85
2005-10-17 07:26:18 51°16.658 2°49.811 -999 354 11 102290 85
2005-10-17 07:26:23 51°16.656 2°49.809 -999 353 11 102290 85
2005-10-17 07:26:28 51°16.655 2°49.808 -999 355 11 102290 85
2005-10-17 07:26:32 51°16.653 2°49.807 -999 2 11 102280 85
2005-10-17 07:26:36 51°16.651 2°49.807 -999 355 11 102280 85
2005-10-17 07:26:43 51°16.648 2°49.805 -999 355 11.1 102290 85
2005-10-17 07:26:48 51°16.647 2°49.804 -999 358 11.1 102290 85
2005-10-17 07:26:52 51°16.645 2°49.803 -999 359 11 102280 85
2005-10-17 07:26:56 51°16.644 2°49.802 -999 349 11 102280 85
2005-10-17 07:27:02 51°16.641 2°49.799 -999 345 11 102280 86
2005-10-17 07:27:08 51°16.64 2°49.797 -999 345 11 102280 86
2005-10-17 07:27:12 51°16.639 2°49.794 -999 345 11 102280 85
2005-10-17 07:27:18 51°16.638 2°49.791 -999 338 11 102280 85
2005-10-17 07:27:22 51°16.638 2°49.787 -999 341 11 102280 85
2005-10-17 07:27:28 51°16.639 2°49.783 -999 329 11 102280 85
2005-10-17 07:27:32 51°16.64 2°49.779 -999 328 11 102280 84
2005-10-17 07:27:38 51°16.642 2°49.774 -999 321 11 102280 84
2005-10-17 07:27:43 51°16.644 2°49.77 -999 318 11 102280 84
2005-10-17 07:27:48 51°16.646 2°49.765 -999 227 11 102280 84
2005-10-17 07:27:53 51°16.649 2°49.761 -999 316 11 102280 84
2005-10-17 07:27:58 51°16.651 2°49.757 -999 314 11 102280 84
2005-10-17 07:28:03 51°16.653 2°49.754 -999 319 11 102280 84
2005-10-17 07:28:08 51°16.655 2°49.75 -999 226 11 102280 84
2005-10-17 07:28:12 51°16.656 2°49.747 -999 227 11 102280 84
2005-10-17 07:28:18 51°16.658 2°49.743 -999 315 11 102280 84
2005-10-17 07:28:22 51°16.659 2°49.74 -999 315 11 102290 84
2005-10-17 07:28:28 51°16.66 2°49.736 -999 308 11 102290 84
2005-10-17 07:28:32 51°16.661 2°49.734 -999 227 11 102290 84
2005-10-17 07:28:38 51°16.66 2°49.73 -999 308 11 102290 84
2005-10-17 07:28:43 51°16.658 2°49.727 -999 306 11 102290 84
2005-10-17 07:28:47 51°16.656 2°49.725 -999 291 11 102290 84
2005-10-17 07:28:52 51°16.654 2°49.721 -999 292 11 102280 84
2005-10-17 07:28:58 51°16.65 2°49.716 -999 293 11 102280 84
2005-10-17 07:29:03 51°16.645 2°49.711 -999 291 11 102280 84
2005-10-17 07:29:08 51°16.64 2°49.705 -999 294 11 102280 84
2005-10-17 07:29:12 51°16.636 2°49.7 -999 294 11 102290 84
2005-10-17 07:29:18 51°16.628 2°49.692 -999 298 11 102290 84
2005-10-17 07:29:23 51°16.621 2°49.684 -999 298 11.1 102270 85
2005-10-17 07:29:28 51°16.614 2°49.676 -999 302 11.1 102270 85
2005-10-17 07:29:32 51°16.607 2°49.669 -999 308 11.1 102290 85
2005-10-17 07:29:38 51°16.596 2°49.658 -999 307 11.1 102290 85
2005-10-17 07:29:42 51°16.587 2°49.649 -999 311 11.1 102280 85
2005-10-17 07:29:48 51°16.572 2°49.635 -999 313 11.1 102280 85
2005-10-17 07:29:52 51°16.562 2°49.624 -999 313 11.1 102280 84
2005-10-17 07:29:56 51°16.551 2°49.614 -999 315 11.1 102280 84
2005-10-17 07:30:02 51°16.534 2°49.596 -999 314 11.1 102280 84
2005-10-17 07:30:08 51°16.517 2°49.576 -999 314 11.1 102280 84
2005-10-17 07:30:12 51°16.505 2°49.562 -999 230 11.1 102280 84
2005-10-17 07:30:18 51°16.487 2°49.539 -999 317 11.1 102280 84
2005-10-17 07:30:23 51°16.473 2°49.52 -999 316 11.1 102280 84
2005-10-17 07:30:27 51°16.461 2°49.503 -999 227 11.1 102280 84
2005-10-17 07:30:32 51°16.446 2°49.482 -999 227 11.1 102270 84
2005-10-17 07:30:38 51°16.429 2°49.458 -999 316 11.1 102270 84
2005-10-17 07:30:43 51°16.414 2°49.437 -999 316 11.1 102260 84
2005-10-17 07:30:48 51°16.4 2°49.416 -999 42 11.1 102260 84
2005-10-17 07:30:52 51°16.388 2°49.4 -999 226 11.1 102260 84
2005-10-17 07:30:58 51°16.37 2°49.374 -999 315 11.1 102260 84
2005-10-17 07:31:02 51°16.358 2°49.358 -999 43 11.1 102270 84
2005-10-17 07:31:08 51°16.341 2°49.332 -999 42 11.1 102270 84
2005-10-17 07:31:12 51°16.329 2°49.316 -999 42 11.1 102270 84
2005-10-17 07:31:18 51°16.311 2°49.291 -999 316 11.1 102270 84
2005-10-17 07:31:23 51°16.296 2°49.271 -999 315 11.1 102270 84
2005-10-17 07:31:28 51°16.281 2°49.249 -999 315 11.1 102270 84
2005-10-17 07:31:32 51°16.269 2°49.232 -999 323 11.1 102270 84
2005-10-17 07:31:38 51°16.251 2°49.209 -999 320 11.1 102270 84
2005-10-17 07:31:43 51°16.236 2°49.188 -999 319 11.1 102270 85
2005-10-17 07:31:48 51°16.221 2°49.166 -999 327 11.1 102270 85
2005-10-17 07:31:52 51°16.209 2°49.15 -999 320 11.1 102270 85
2005-10-17 07:31:58 51°16.192 2°49.125 -999 322 11.1 102270 85
2005-10-17 07:32:02 51°16.179 2°49.109 -999 42 11.1 102270 85
2005-10-17 07:32:07 51°16.164 2°49.088 -999 315 11.1 102270 85
2005-10-17 07:32:12 51°16.149 2°49.068 -999 317 11.1 102270 85
2005-10-17 07:32:16 51°16.137 2°49.051 -999 318 11.1 102270 85
2005-10-17 07:32:22 51°16.119 2°49.028 -999 322 11.1 102270 85
2005-10-17 07:32:28 51°16.1 2°49.002 -999 324 11.1 102270 85
2005-10-17 07:32:32 51°16.088 2°48.986 -999 319 11.1 102270 85
2005-10-17 07:32:38 51°16.07 2°48.962 -999 317 11.1 102270 85
2005-10-17 07:32:42 51°16.058 2°48.945 -999 318 11.1 102270 85
2005-10-17 07:32:47 51°16.044 2°48.924 -999 319 11.1 102270 85
2005-10-17 07:32:52 51°16.029 2°48.903 -999 316 11.1 102270 85
2005-10-17 07:32:58 51°16.011 2°48.878 -999 319 11.1 102270 85
2005-10-17 07:33:02 51°15.999 2°48.862 -999 324 11.2 102270 85
2005-10-17 07:33:08 51°15.981 2°48.835 -999 325 11.2 102270 85
2005-10-17 07:33:12 51°15.969 2°48.819 -999 325 11.2 102270 85
2005-10-17 07:33:18 51°15.951 2°48.795 -999 323 11.2 102270 85
2005-10-17 07:33:23 51°15.936 2°48.773 -999 325 11.2 102270 85
2005-10-17 07:33:27 51°15.924 2°48.756 -999 324 11.2 102270 85
2005-10-17 07:33:32 51°15.91 2°48.735 -999 324 11.2 102270 86
2005-10-17 07:33:38 51°15.892 2°48.711 -999 320 11.2 102270 86
2005-10-17 07:33:43 51°15.877 2°48.689 -999 322 11.3 102280 86
2005-10-17 07:33:48 51°15.862 2°48.669 -999 320 11.3 102280 86
2005-10-17 07:33:52 51°15.851 2°48.653 -999 319 11.3 102270 86
2005-10-17 07:33:56 51°15.839 2°48.637 -999 319 11.3 102270 86
2005-10-17 07:34:02 51°15.821 2°48.612 -999 316 11.3 102270 86
2005-10-17 07:34:08 51°15.803 2°48.587 -999 317 11.3 102270 86
2005-10-17 07:34:12 51°15.792 2°48.571 -999 321 11.3 102270 85
2005-10-17 07:34:18 51°15.774 2°48.547 -999 318 11.3 102270 85
2005-10-17 07:34:22 51°15.762 2°48.53 -999 319 11.3 102270 85
2005-10-17 07:34:28 51°15.744 2°48.505 -999 318 11.3 102270 85
2005-10-17 07:34:32 51°15.732 2°48.489 -999 320 11.3 102270 84
2005-10-17 07:34:38 51°15.715 2°48.465 -999 41 11.3 102270 84
2005-10-17 07:34:42 51°15.703 2°48.448 -999 315 11.4 102270 85
2005-10-17 07:34:48 51°15.685 2°48.424 -999 316 11.4 102270 85
2005-10-17 07:34:52 51°15.673 2°48.408 -999 317 11.3 102260 84
2005-10-17 07:34:58 51°15.656 2°48.382 -999 227 11.3 102260 84
2005-10-17 07:35:03 51°15.641 2°48.363 -999 316 11.4 102280 84
2005-10-17 07:35:07 51°15.629 2°48.345 -999 42 11.4 102280 84
2005-10-17 07:35:12 51°15.614 2°48.325 -999 40 11.4 102270 84
2005-10-17 07:35:18 51°15.597 2°48.301 -999 322 11.4 102270 84
2005-10-17 07:35:23 51°15.582 2°48.28 -999 322 11.4 102270 83
2005-10-17 07:35:28 51°15.567 2°48.259 -999 317 11.4 102270 83
2005-10-17 07:35:32 51°15.556 2°48.242 -999 317 11.4 102280 83
2005-10-17 07:35:38 51°15.539 2°48.217 -999 37 11.4 102280 83
2005-10-17 07:35:42 51°15.527 2°48.201 -999 43 11.4 102270 83
2005-10-17 07:35:48 51°15.51 2°48.176 -999 43 11.4 102270 83
2005-10-17 07:35:52 51°15.498 2°48.161 -999 315 11.4 102270 83
2005-10-17 07:35:58 51°15.48 2°48.136 -999 317 11.4 102270 83
2005-10-17 07:36:03 51°15.465 2°48.117 -999 316 11.4 102270 83
2005-10-17 07:36:08 51°15.45 2°48.097 -999 321 11.4 102270 83
2005-10-17 07:36:12 51°15.438 2°48.082 -999 41 11.4 102270 83
2005-10-17 07:36:16 51°15.426 2°48.066 -999 321 11.4 102270 83
2005-10-17 07:36:22 51°15.408 2°48.042 -999 321 11.4 102280 83
2005-10-17 07:36:28 51°15.391 2°48.019 -999 319 11.4 102280 83
2005-10-17 07:36:32 51°15.379 2°48.003 -999 318 11.4 102280 84
2005-10-17 07:36:38 51°15.361 2°47.979 -999 327 11.4 102280 84
2005-10-17 07:36:42 51°15.35 2°47.963 -999 320 11.4 102270 84
2005-10-17 07:36:48 51°15.332 2°47.938 -999 323 11.4 102270 84
2005-10-17 07:36:52 51°15.32 2°47.923 -999 317 11.4 102270 84
2005-10-17 07:36:58 51°15.302 2°47.9 -999 318 11.4 102270 84
2005-10-17 07:37:02 51°15.291 2°47.883 -999 322 11.4 102270 84
2005-10-17 07:37:08 51°15.273 2°47.86 -999 319 11.4 102270 84
2005-10-17 07:37:12 51°15.261 2°47.844 -999 318 11.4 102260 84
2005-10-17 07:37:18 51°15.243 2°47.822 -999 42 11.4 102260 84
2005-10-17 07:37:23 51°15.228 2°47.801 -999 316 11.4 102270 84
2005-10-17 07:37:28 51°15.213 2°47.782 -999 317 11.4 102270 84
2005-10-17 07:37:32 51°15.201 2°47.766 -999 318 11.4 102260 84
2005-10-17 07:37:36 51°15.19 2°47.75 -999 317 11.4 102260 84
2005-10-17 07:37:43 51°15.169 2°47.724 -999 319 11.4 102270 83
2005-10-17 07:37:48 51°15.154 2°47.705 -999 41 11.4 102270 83
2005-10-17 07:37:52 51°15.141 2°47.69 -999 318 11.4 102270 83
2005-10-17 07:37:58 51°15.124 2°47.665 -999 43 11.4 102270 83
2005-10-17 07:38:02 51°15.112 2°47.649 -999 42 11.4 102260 83
2005-10-17 07:38:08 51°15.095 2°47.625 -999 319 11.4 102260 83
2005-10-17 07:38:12 51°15.083 2°47.61 -999 319 11.4 102270 83
2005-10-17 07:38:18 51°15.065 2°47.585 -999 317 11.4 102270 83
2005-10-17 07:38:23 51°15.05 2°47.565 -999 319 11.4 102270 83
2005-10-17 07:38:28 51°15.035 2°47.546 -999 227 11.4 102270 83
2005-10-17 07:38:32 51°15.024 2°47.529 -999 320 11.4 102260 83
2005-10-17 07:38:38 51°15.005 2°47.505 -999 42 11.4 102260 83
2005-10-17 07:38:42 51°14.994 2°47.489 -999 319 11.4 102270 83
2005-10-17 07:38:48 51°14.975 2°47.466 -999 317 11.4 102270 83
2005-10-17 07:38:52 51°14.964 2°47.449 -999 317 11.4 102270 82
2005-10-17 07:38:58 51°14.946 2°47.425 -999 319 11.4 102270 82
2005-10-17 07:39:02 51°14.934 2°47.408 -999 316 11.4 102270 82
2005-10-17 07:39:08 51°14.916 2°47.384 -999 315 11.4 102270 82
2005-10-17 07:39:12 51°14.904 2°47.368 -999 317 11.4 102260 83
2005-10-17 07:39:18 51°14.887 2°47.343 -999 321 11.4 102260 83
2005-10-17 07:39:22 51°14.875 2°47.327 -999 316 11.4 102270 83
2005-10-17 07:39:27 51°14.86 2°47.306 -999 226 11.4 102270 83
2005-10-17 07:39:32 51°14.846 2°47.284 -999 227 11.4 102260 83
2005-10-17 07:39:38 51°14.829 2°47.26 -999 319 11.4 102260 83
2005-10-17 07:39:42 51°14.817 2°47.243 -999 320 11.4 102270 83
2005-10-17 07:39:48 51°14.799 2°47.218 -999 316 11.4 102270 83
2005-10-17 07:39:52 51°14.787 2°47.2 -999 227 11.4 102260 83
2005-10-17 07:39:58 51°14.77 2°47.176 -999 316 11.4 102260 83
2005-10-17 07:40:02 51°14.758 2°47.159 -999 316 11.4 102260 83
2005-10-17 07:40:08 51°14.741 2°47.134 -999 316 11.4 102260 83
2005-10-17 07:40:12 51°14.729 2°47.118 -999 321 11.4 102260 83
2005-10-17 07:40:17 51°14.714 2°47.095 -999 315 11.4 102260 83
2005-10-17 07:40:23 51°14.697 2°47.071 -999 42 11.4 102260 83
2005-10-17 07:40:28 51°14.682 2°47.051 -999 315 11.4 102260 83
2005-10-17 07:40:32 51°14.67 2°47.034 -999 316 11.4 102270 83
2005-10-17 07:40:37 51°14.655 2°47.012 -999 316 11.4 102270 83
2005-10-17 07:40:43 51°14.638 2°46.988 -999 42 11.4 102260 83
2005-10-17 07:40:48 51°14.623 2°46.967 -999 41 11.4 102260 83
2005-10-17 07:40:52 51°14.611 2°46.951 -999 319 11.4 102260 83
2005-10-17 07:40:56 51°14.6 2°46.934 -999 319 11.4 102260 83
2005-10-17 07:41:02 51°14.582 2°46.91 -999 316 11.4 102260 83
2005-10-17 07:41:07 51°14.567 2°46.888 -999 41 11.4 102260 83
2005-10-17 07:41:12 51°14.553 2°46.868 -999 44 11.4 102270 83
2005-10-17 07:41:16 51°14.541 2°46.852 -999 316 11.4 102270 83
2005-10-17 07:41:22 51°14.522 2°46.827 -999 318 11.4 102270 83
2005-10-17 07:41:28 51°14.505 2°46.801 -999 43 11.4 102270 83
2005-10-17 07:41:32 51°14.492 2°46.786 -999 43 11.4 102260 83
2005-10-17 07:41:38 51°14.475 2°46.761 -999 227 11.4 102260 83
2005-10-17 07:41:43 51°14.46 2°46.74 -999 320 11.4 102260 83
2005-10-17 07:41:47 51°14.449 2°46.723 -999 39 11.4 102260 83
2005-10-17 07:41:52 51°14.434 2°46.703 -999 226 11.4 102260 83
2005-10-17 07:41:58 51°14.416 2°46.677 -999 323 11.4 102260 83
2005-10-17 07:42:03 51°14.401 2°46.657 -999 320 11.4 102260 82
2005-10-17 07:42:08 51°14.386 2°46.637 -999 316 11.4 102260 82
2005-10-17 07:42:12 51°14.374 2°46.62 -999 316 11.3 102260 82
2005-10-17 07:42:18 51°14.356 2°46.595 -999 316 11.3 102260 82
2005-10-17 07:42:23 51°14.342 2°46.575 -999 318 11.4 102260 83
2005-10-17 07:42:28 51°14.326 2°46.555 -999 42 11.4 102260 83
2005-10-17 07:42:32 51°14.315 2°46.538 -999 316 11.3 102260 83
2005-10-17 07:42:38 51°14.297 2°46.514 -999 226 11.3 102260 83
2005-10-17 07:42:42 51°14.285 2°46.497 -999 317 11.3 102260 83
2005-10-17 07:42:48 51°14.267 2°46.472 -999 316 11.3 102260 83
2005-10-17 07:42:52 51°14.256 2°46.455 -999 316 11.3 102260 83
2005-10-17 07:42:58 51°14.238 2°46.431 -999 317 11.3 102260 83
2005-10-17 07:43:03 51°14.223 2°46.41 -999 323 11.3 102260 83
2005-10-17 07:43:08 51°14.208 2°46.392 -999 321 11.3 102260 83
2005-10-17 07:43:12 51°14.196 2°46.374 -999 319 11.3 102270 83
2005-10-17 07:43:18 51°14.178 2°46.35 -999 226 11.3 102270 83
2005-10-17 07:43:22 51°14.166 2°46.334 -999 228 11.3 102270 83
2005-10-17 07:43:28 51°14.149 2°46.31 -999 42 11.3 102270 83
2005-10-17 07:43:32 51°14.136 2°46.295 -999 43 11.3 102270 83
2005-10-17 07:43:38 51°14.119 2°46.27 -999 317 11.3 102270 83
2005-10-17 07:43:42 51°14.106 2°46.254 -999 317 11.3 102260 83
2005-10-17 07:43:47 51°14.092 2°46.233 -999 315 11.3 102260 83
2005-10-17 07:43:52 51°14.077 2°46.213 -999 319 11.3 102260 83
2005-10-17 07:43:56 51°14.066 2°46.197 -999 321 11.3 102260 83
2005-10-17 07:44:02 51°14.049 2°46.172 -999 319 11.3 102270 83
2005-10-17 07:44:08 51°14.031 2°46.149 -999 43 11.3 102270 83
2005-10-17 07:44:12 51°14.019 2°46.132 -999 318 11.3 102270 84
2005-10-17 07:44:18 51°14.001 2°46.108 -999 317 11.3 102270 84
2005-10-17 07:44:22 51°13.988 2°46.093 -999 317 11.3 102270 84
2005-10-17 07:44:28 51°13.972 2°46.068 -999 314 11.3 102270 84
2005-10-17 07:44:32 51°13.96 2°46.054 -999 315 11.3 102270 84
2005-10-17 07:44:38 51°13.942 2°46.028 -999 228 11.3 102270 84
2005-10-17 07:44:42 51°13.93 2°46.012 -999 42 11.3 102260 84
2005-10-17 07:44:48 51°13.913 2°45.989 -999 316 11.3 102260 84
2005-10-17 07:44:52 51°13.901 2°45.974 -999 321 11.3 102270 84
2005-10-17 07:44:58 51°13.882 2°45.951 -999 322 11.3 102270 84
2005-10-17 07:45:03 51°13.867 2°45.933 -999 317 11.2 102270 84
2005-10-17 07:45:08 51°13.852 2°45.914 -999 320 11.2 102270 84
2005-10-17 07:45:12 51°13.841 2°45.897 -999 316 11.2 102270 84
2005-10-17 07:45:16 51°13.828 2°45.884 -999 325 11.2 102270 84
2005-10-17 07:45:22 51°13.811 2°45.859 -999 321 11.3 102270 84
2005-10-17 07:45:28 51°13.793 2°45.835 -999 317 11.3 102270 84
2005-10-17 07:45:32 51°13.781 2°45.819 -999 42 11.2 102280 84
2005-10-17 07:45:38 51°13.764 2°45.795 -999 315 11.2 102280 84
2005-10-17 07:45:42 51°13.752 2°45.78 -999 38 11.2 102280 85
2005-10-17 07:45:48 51°13.735 2°45.756 -999 316 11.2 102280 85
2005-10-17 07:45:52 51°13.723 2°45.741 -999 320 11.2 102270 85
2005-10-17 07:45:58 51°13.705 2°45.717 -999 314 11.2 102270 85
2005-10-17 07:46:02 51°13.693 2°45.702 -999 314 11.2 102270 84
2005-10-17 07:46:08 51°13.675 2°45.678 -999 41 11.2 102270 84
2005-10-17 07:46:12 51°13.663 2°45.662 -999 43 11.2 102270 84
2005-10-17 07:46:18 51°13.645 2°45.64 -999 318 11.2 102270 84
2005-10-17 07:46:22 51°13.633 2°45.624 -999 322 11.2 102270 84
2005-10-17 07:46:28 51°13.615 2°45.601 -999 316 11.2 102270 84
2005-10-17 07:46:32 51°13.603 2°45.585 -999 320 11.2 102280 85
2005-10-17 07:46:38 51°13.584 2°45.562 -999 320 11.2 102280 85
2005-10-17 07:46:43 51°13.569 2°45.542 -999 321 11.2 102270 85
2005-10-17 07:46:48 51°13.553 2°45.524 -999 318 11.2 102270 85
2005-10-17 07:46:52 51°13.541 2°45.507 -999 316 11.2 102270 85
2005-10-17 07:46:58 51°13.522 2°45.484 -999 318 11.2 102270 85
2005-10-17 07:47:02 51°13.51 2°45.468 -999 315 11.2 102280 85
2005-10-17 07:47:08 51°13.492 2°45.445 -999 316 11.2 102280 85
2005-10-17 07:47:12 51°13.48 2°45.428 -999 324 11.2 102280 85
2005-10-17 07:47:18 51°13.461 2°45.405 -999 317 11.2 102280 85
2005-10-17 07:47:22 51°13.449 2°45.389 -999 322 11.2 102270 85
2005-10-17 07:47:27 51°13.434 2°45.369 -999 316 11.2 102270 85
2005-10-17 07:47:32 51°13.419 2°45.349 -999 319 11.2 102270 85
2005-10-17 07:47:38 51°13.401 2°45.326 -999 43 11.2 102270 85
2005-10-17 07:47:43 51°13.386 2°45.305 -999 316 11.2 102270 85
2005-10-17 07:47:48 51°13.371 2°45.285 -999 317 11.2 102270 85
2005-10-17 07:47:52 51°13.359 2°45.27 -999 43 11.2 102270 85
2005-10-17 07:47:58 51°13.341 2°45.246 -999 318 11.2 102270 85
2005-10-17 07:48:02 51°13.329 2°45.229 -999 319 11.1 102270 85
2005-10-17 07:48:08 51°13.311 2°45.206 -999 41 11.1 102270 85
2005-10-17 07:48:12 51°13.299 2°45.191 -999 227 11.1 102270 85
2005-10-17 07:48:18 51°13.281 2°45.165 -999 317 11.1 102270 85
2005-10-17 07:48:23 51°13.266 2°45.146 -999 316 11.2 102270 85
2005-10-17 07:48:27 51°13.255 2°45.13 -999 319 11.2 102270 85
2005-10-17 07:48:32 51°13.239 2°45.111 -999 317 11.2 102270 86
2005-10-17 07:48:38 51°13.222 2°45.086 -999 318 11.2 102270 86
2005-10-17 07:48:42 51°13.209 2°45.071 -999 40 11.2 102270 86
2005-10-17 07:48:47 51°13.194 2°45.051 -999 320 11.2 102270 86
2005-10-17 07:48:52 51°13.18 2°45.031 -999 319 11.1 102270 86
2005-10-17 07:48:58 51°13.162 2°45.008 -999 229 11.1 102270 86
2005-10-17 07:49:02 51°13.15 2°44.992 -999 315 11.2 102260 86
2005-10-17 07:49:07 51°13.135 2°44.971 -999 227 11.2 102260 86
2005-10-17 07:49:12 51°13.12 2°44.95 -999 319 11.2 102270 86
2005-10-17 07:49:18 51°13.103 2°44.926 -999 319 11.2 102270 86
2005-10-17 07:49:22 51°13.091 2°44.91 -999 317 11.2 102260 85
2005-10-17 07:49:28 51°13.073 2°44.886 -999 317 11.2 102260 85
2005-10-17 07:49:32 51°13.061 2°44.869 -999 315 11.2 102260 85
2005-10-17 07:49:38 51°13.043 2°44.845 -999 227 11.2 102260 85
2005-10-17 07:49:43 51°13.029 2°44.825 -999 227 11.2 102260 86
2005-10-17 07:49:48 51°13.014 2°44.804 -999 319 11.2 102260 86
2005-10-17 07:49:52 51°13.002 2°44.789 -999 319 11.2 102260 85
2005-10-17 07:49:56 51°12.99 2°44.773 -999 320 11.2 102260 85
2005-10-17 07:50:02 51°12.972 2°44.748 -999 314 11.2 102260 85
2005-10-17 07:50:07 51°12.957 2°44.728 -999 226 11.2 102260 85
2005-10-17 07:50:12 51°12.942 2°44.708 -999 318 11.2 102270 85
2005-10-17 07:50:16 51°12.93 2°44.692 -999 317 11.2 102270 85
2005-10-17 07:50:22 51°12.913 2°44.666 -999 40 11.2 102260 85
2005-10-17 07:50:28 51°12.895 2°44.642 -999 320 11.2 102260 85
2005-10-17 07:50:32 51°12.884 2°44.625 -999 227 11.2 102250 85
2005-10-17 07:50:36 51°12.872 2°44.608 -999 229 11.2 102250 85
2005-10-17 07:50:42 51°12.854 2°44.582 -999 316 11.2 102270 85
2005-10-17 07:50:48 51°12.837 2°44.557 -999 318 11.2 102270 85
2005-10-17 07:50:52 51°12.825 2°44.539 -999 319 11.2 102260 86
2005-10-17 07:50:56 51°12.814 2°44.522 -999 42 11.2 102260 86
2005-10-17 07:51:02 51°12.797 2°44.496 -999 40 11.2 102250 86
2005-10-17 07:51:08 51°12.779 2°44.471 -999 315 11.2 102250 86
2005-10-17 07:51:12 51°12.767 2°44.453 -999 42 11.2 102260 86
2005-10-17 07:51:18 51°12.75 2°44.427 -999 317 11.2 102260 86
2005-10-17 07:51:22 51°12.738 2°44.41 -999 315 11.2 102260 85
2005-10-17 07:51:28 51°12.721 2°44.383 -999 227 11.2 102260 85
2005-10-17 07:51:32 51°12.709 2°44.367 -999 226 11.2 102260 85
2005-10-17 07:51:38 51°12.692 2°44.341 -999 316 11.2 102260 85
2005-10-17 07:51:42 51°12.68 2°44.324 -999 315 11.2 102260 85
2005-10-17 07:51:48 51°12.663 2°44.299 -999 312 11.2 102260 85
2005-10-17 07:51:52 51°12.651 2°44.283 -999 317 11.2 102260 85
2005-10-17 07:51:56 51°12.64 2°44.266 -999 314 11.2 102260 85
2005-10-17 07:52:02 51°12.622 2°44.242 -999 226 11.2 102260 86
2005-10-17 07:52:08 51°12.605 2°44.216 -999 43 11.2 102260 86
2005-10-17 07:52:12 51°12.593 2°44.198 -999 42 11.2 102260 86